Location: Dackenheim
(49.5215°N, 8.1854°E)
Time: 17:15:32
(UTC+00:00)

Helios 1A - Pass Details

Date: 19 May 2025
Orbit: 544 x 570 km, 98.3° (Epoch: 03 June)

Event Time Altitude Azimuth Distance (km) Brightness Sun altitude
Rises 20:41:43 0° 8° (N) 2,789 7.1 -11.8°
Reaches altitude 10° 20:43:56 10° 2° (N) 1,884 6.3 -12.0°
Maximum altitude 20:47:47 42° 292° (WNW) 817 4.2 -12.4°
Drops below altitude 10° 20:51:36 10° 221° (SW) 1,859 5.4 -12.8°
Sets 20:53:47 0° 214° (SW) 2,746 6.2 -13.0°
